Weather History for Ely, MN

Change the Weather History Date:

Thursday, September 5, 2013

  Actual Average Record
Temperature  
Mean Temperature 55 °F -  
Max Temperature 75 °F 69 °F 87 °F (2007)
Min Temperature 35 °F 49 °F 32 °F (2011)
Degree Days  
Heating Degree Days 10    
Growing Degree Days 5 (Base 50)    
Moisture  
Dew Point 44 °F    
Average Humidity 66    
Maximum Humidity 100    
Minimum Humidity 33    
Precipitation  
Precipitation 0.00 in - - ()
Sea Level Pressure  
Sea Level Pressure 30.21 in    
Wind  
Wind Speed 2 mph (South)    
Max Wind Speed 12 mph    
Max Gust Speed -    
Visibility 10 miles    
Events      
Averages and records for this station are not official NWS values.
T = Trace of Precipitation, MM = Missing Value Source: NWS Daily Summary

Daily Weather History Graph

Daily Weather History Graph

Search for Another Location

Airport:

Trip Planner

Search our weather history database for the weather conditions in past years. The results will help you decide how hot, cold, wet, or windy it might be!

Date:

Astronomy

Sep. 05, 2013 Rise Set
Actual Time 6:31 AM CDT 7:39 PM CDT
Civil Twilight 5:59 AM CDT 8:11 PM CDT
Nautical Twilight 5:21 AM CDT 8:49 PM CDT
Astronomical Twilight 4:40 AM CDT 9:29 PM CDT
Moon 6:48 AM CDT (9/5) 7:24 PM CDT (9/5)
Length of Visible Light 14h 11m
Length of Day
13h 08m
New Moon, 0% of the Moon is Illuminated
Sep 5
New Moon
Sep 12
First Quarter
Sep 19
Full
Sep 26
Last Quarter
Oct 4
New

Hourly Weather History & Observations

Time (CDT) Temp. Dew Point Humidity Pressure Visibility Wind Dir Wind Speed Gust Speed Precip Events Conditions
12:13 AM 44.6 °F 42.8 °F 93% 30.21 in 10.0 mi Calm Calm - N/A   Clear
12:32 AM 44.6 °F 39.2 °F 81% 30.21 in 10.0 mi Calm Calm - N/A   Clear
12:53 AM 42.8 °F 39.2 °F 87% 30.21 in 10.0 mi Calm Calm - N/A   Clear
1:13 AM 42.8 °F 39.2 °F 87% 30.22 in 10.0 mi Calm Calm - N/A   Clear
1:32 AM 42.8 °F 39.2 °F 87% 30.22 in 10.0 mi Calm Calm - N/A   Clear
1:53 AM 42.8 °F 39.2 °F 87% 30.22 in 10.0 mi Calm Calm - N/A   Clear
2:13 AM 41.0 °F 39.2 °F 93% 30.23 in 10.0 mi Calm Calm - N/A   Clear
2:32 AM 41.0 °F 39.2 °F 93% 30.23 in 10.0 mi Calm Calm - N/A   Clear
2:53 AM 39.2 °F 37.4 °F 93% 30.24 in 10.0 mi Calm Calm - N/A   Clear
3:13 AM 39.2 °F 37.4 °F 93% 30.25 in 10.0 mi Calm Calm - N/A   Clear
3:32 AM 39.2 °F 37.4 °F 93% 30.24 in 10.0 mi Calm Calm - N/A   Clear
3:53 AM 39.2 °F 37.4 °F 93% 30.25 in 10.0 mi Calm Calm - N/A   Clear
4:13 AM 39.2 °F 37.4 °F 93% 30.25 in 10.0 mi Calm Calm - N/A   Clear
4:32 AM 39.2 °F 37.4 °F 93% 30.25 in 10.0 mi Calm Calm - N/A   Clear
4:53 AM 39.2 °F 37.4 °F 93% 30.25 in 10.0 mi Calm Calm - N/A   Clear
5:13 AM 39.2 °F 35.6 °F 87% 30.25 in 10.0 mi Calm Calm - N/A   Clear
5:32 AM 39.2 °F 37.4 °F 93% 30.25 in 10.0 mi Calm Calm - N/A   Clear
5:53 AM 37.4 °F 37.4 °F 100% 30.25 in 10.0 mi Calm Calm - N/A   Clear
6:13 AM 37.4 °F 35.6 °F 93% 30.26 in 10.0 mi Calm Calm - N/A   Clear
6:32 AM 37.4 °F 37.4 °F 100% 30.27 in 10.0 mi Calm Calm - N/A   Clear
6:53 AM 35.6 °F 33.8 °F 93% 30.28 in 10.0 mi Calm Calm - N/A   Clear
7:13 AM 37.4 °F 37.4 °F 100% 30.28 in 10.0 mi Calm Calm - N/A   Clear
7:32 AM 39.2 °F 37.4 °F 93% 30.29 in 10.0 mi Calm Calm - N/A   Clear
7:53 AM 44.6 °F 42.8 °F 93% 30.28 in 10.0 mi Calm Calm - N/A   Clear
8:13 AM 46.4 °F 42.8 °F 87% 30.28 in 10.0 mi Calm Calm - N/A   Clear
8:32 AM 53.6 °F 44.6 °F 72% 30.28 in 10.0 mi SSE 4.6 mph - N/A   Clear
8:53 AM 55.4 °F 42.8 °F 63% 30.27 in 10.0 mi ESE 4.6 mph - N/A   Clear
9:13 AM 57.2 °F 44.6 °F 63% 30.27 in 10.0 mi SSE 4.6 mph - N/A   Clear
9:32 AM 59.0 °F 42.8 °F 55% 30.27 in 10.0 mi South 5.8 mph - N/A   Clear
9:53 AM 60.8 °F 42.8 °F 52% 30.27 in 10.0 mi SSE 4.6 mph - N/A   Clear
10:13 AM 62.6 °F 42.8 °F 48% 30.27 in 10.0 mi SSE 4.6 mph - N/A   Clear
10:32 AM 62.6 °F 41.0 °F 45% 30.27 in 10.0 mi SSE 3.5 mph - N/A   Clear
10:53 AM 64.4 °F 41.0 °F 42% 30.26 in 10.0 mi South 3.5 mph - N/A   Clear
11:13 AM 64.4 °F 41.0 °F 42% 30.26 in 10.0 mi South 5.8 mph - N/A   Clear
11:33 AM 66.2 °F 39.2 °F 37% 30.26 in 10.0 mi SE 4.6 mph - N/A   Clear
11:53 AM 66.2 °F 41.0 °F 40% 30.25 in 10.0 mi SW 6.9 mph - N/A   Clear
12:13 PM 68.0 °F 42.8 °F 40% 30.25 in 10.0 mi SSW 5.8 mph - N/A   Clear
12:32 PM 69.8 °F 39.2 °F 33% 30.25 in 10.0 mi South 5.8 mph - N/A   Clear
12:53 PM 69.8 °F 39.2 °F 33% 30.24 in 10.0 mi SSW 3.5 mph - N/A   Clear
1:12 PM 69.8 °F 41.0 °F 35% 30.23 in 10.0 mi WSW 5.8 mph - N/A   Clear
1:33 PM 71.6 °F 41.0 °F 33% 30.22 in 10.0 mi SSE 5.8 mph - N/A   Clear
1:53 PM 71.6 °F 42.8 °F 35% 30.21 in 10.0 mi SW 5.8 mph - N/A   Clear
2:12 PM 73.4 °F 42.8 °F 33% 30.21 in 10.0 mi South 11.5 mph - N/A   Clear
2:33 PM 73.4 °F 44.6 °F 36% 30.20 in 10.0 mi South 6.9 mph - N/A   Clear
2:53 PM 73.4 °F 44.6 °F 36% 30.20 in 10.0 mi South 4.6 mph - N/A   Clear
3:12 PM 73.4 °F 44.6 °F 36% 30.19 in 10.0 mi SW 8.1 mph - N/A   Clear
3:33 PM 73.4 °F 46.4 °F 38% 30.19 in 10.0 mi WSW 8.1 mph - N/A   Clear
3:53 PM 73.4 °F 46.4 °F 38% 30.18 in 10.0 mi SSW 8.1 mph - N/A   Clear
4:12 PM 73.4 °F 48.2 °F 41% 30.17 in 10.0 mi SSW 6.9 mph - N/A   Clear
4:33 PM 73.4 °F 48.2 °F 41% 30.17 in 10.0 mi SSW 5.8 mph - N/A   Clear
4:53 PM 75.2 °F 50.0 °F 41% 30.16 in 10.0 mi SW 4.6 mph - N/A   Clear
5:12 PM 73.4 °F 50.0 °F 44% 30.16 in 10.0 mi WSW 6.9 mph - N/A   Clear
5:33 PM 73.4 °F 51.8 °F 47% 30.15 in 10.0 mi SW 3.5 mph - N/A   Clear
5:53 PM 73.4 °F 50.0 °F 44% 30.15 in 10.0 mi SW 6.9 mph - N/A   Clear
6:12 PM 71.6 °F 48.2 °F 43% 30.15 in 10.0 mi SW 8.1 mph - N/A   Clear
6:33 PM 71.6 °F 50.0 °F 46% 30.14 in 10.0 mi SW 4.6 mph - N/A   Clear
6:53 PM 69.8 °F 51.8 °F 53% 30.13 in 10.0 mi SSW 4.6 mph - N/A   Clear
7:12 PM 66.2 °F 51.8 °F 60% 30.13 in 10.0 mi South 5.8 mph - N/A   Clear
7:33 PM 66.2 °F 51.8 °F 60% 30.12 in 10.0 mi South 4.6 mph - N/A   Clear
7:53 PM 64.4 °F 51.8 °F 64% 30.13 in 10.0 mi South 4.6 mph - N/A   Clear
8:12 PM 62.6 °F 50.0 °F 63% 30.13 in 10.0 mi South 5.8 mph - N/A   Clear
8:33 PM 62.6 °F 50.0 °F 63% 30.13 in 10.0 mi South 4.6 mph - N/A   Clear
8:53 PM 60.8 °F 50.0 °F 68% 30.13 in 10.0 mi South 4.6 mph - N/A   Clear
9:12 PM 60.8 °F 48.2 °F 63% 30.13 in 10.0 mi SSE 4.6 mph - N/A   Clear
9:33 PM 59.0 °F 50.0 °F 72% 30.13 in 10.0 mi South 3.5 mph - N/A   Clear
9:53 PM 57.2 °F 50.0 °F 77% 30.12 in 10.0 mi South 3.5 mph - N/A   Clear
10:12 PM 57.2 °F 50.0 °F 77% 30.12 in 10.0 mi Calm Calm - N/A   Clear
10:33 PM 57.2 °F 48.2 °F 72% 30.12 in 10.0 mi SSE 3.5 mph - N/A   Clear
10:52 PM 55.4 °F 50.0 °F 82% 30.12 in 10.0 mi Calm Calm - N/A   Clear
11:13 PM 55.4 °F 50.0 °F 82% 30.11 in 10.0 mi Calm Calm - N/A   Clear
11:33 PM 53.6 °F 48.2 °F 82% 30.11 in 10.0 mi Calm Calm - N/A   Clear
11:52 PM 55.4 °F 50.0 °F 82% 30.10 in 10.0 mi Calm Calm - N/A   Clear